Regional Weather Roundup
Issued by NWS New Orleans/Baton Rouge, LA

Home | Current Version | Previous Version | Graphics & Text | Print | Product List | Glossary On
Versions: 1 2 3 4 5 6 7 8 9 10 11 12 13 14 15 16 17 18 19 20 21 22 23 24 25 26 27 28 29 30 31 32 33 34 35 36 37 38 39 40 41 42 43 44 45 46 47 48 49 50
329
ASUS44 KLIX 231905
RWRLIX
NEW ORLEANS REGIONAL WEATHER ROUNDUP
NATIONAL WEATHER SERVICE NEW ORLEANS LA
200 PM CDT WED JUL 23 2014

NOTE: "FAIR" INDICATES FEW OR NO CLOUDS BELOW 12,000 FEET WITH NO
      SIGNIFICANT WEATHER AND/OR OBSTRUCTIONS TO VISIBILITY.
      SKY/WX - SKY CONDITION AND SIGNIFICANT WEATHER.
      TMP - AIR TEMPERATURE.     DP    - DEWPOINT TEMPERATURE.
      RH  - RELATIVE HUMIDITY.   PRES  - PRESSURE.
      HI  - HEAT INDEX.          WCI   - WIND CHILL INDEX.

*  THESE STATIONS ARE NOT NWS OR FAA STATIONS AND ARE NOT UNDER
   NWS QUALITY CONTROL.

LAZ038-040-048-061>063-065>067-069-232000-
SOUTHEAST LOUISIANA

CITY           SKY/WX    TMP DP  RH WIND       PRES   REMARKS
N.O. AUDUBON     N/A     82  71  69 MISG        N/A
N.O. INTL ARPT PTSUNNY   82  73  74 SE10      30.05F
N.O. LAKEFRONT PTSUNNY   82  71  69 SE12      30.06F
N.O. DOWNTOWN*   N/A     81  70  69 SE8       30.06F
SLIDELL        PTSUNNY   83  72  69 S8        30.05F
BATON ROUGE    PTSUNNY   89  72  56 NE6       30.03F HX  96
BOOTHVILLE       N/A     80  72  76 SE6       30.05F
BELLE CHASSE   LGT RAIN  78  71  79 E5        30.05F
BOGALUSA*        N/A     82  68  62 S12G22    30.08R
GALLIANO*      NOT AVBL
NEW ROADS*       N/A     87  72  61 N7        30.04F
GONZALES*      MOCLDY    87  74  66 SE7       30.02F HX  95
HAMMOND*       PTSUNNY   84  72  65 SE10      30.05F
HOUMA*         PTSUNNY   81  72  74 SE7       30.05F
PORT FOURCHON* PTCLDY    77  73  88 VRB5      30.07F FOG

$$

MSZ070-080>082-232000-
SOUTHERN MISSISSIPPI

CITY           SKY/WX    TMP DP  RH WIND       PRES   REMARKS
MCCOMB         MOSUNNY   88  71  57 S7        30.05F
GULFPORT       CLOUDY    84  73  69 S10       30.05F
BILOXI         CLOUDY    82  73  74 S12       30.06F
PASCAGOULA     CLOUDY    79  71  76 S5        30.07F
STENNIS ARPT*  MOSUNNY  N/A N/A N/A S9        30.06S

$$

COASTAL OBSERVATIONS
LAKE AND NEARSHORE STATIONS

STATION/POSITION TIME  TEMP    WIND        PRES    WAVE
                       AIR SEA DIR/SP/G            HT/PER
                 (UTC) (F)     (DEG/KT/KT) (MB)    (FT/S)
PASCAGOULA       1900   80     170/  5/  8 1017.6
WAVELAND YACHT   1900   81     200/  7/  9 1017.2
GRAND ISLE       1900   79 84  130/  4/  6 1018.0
SOUTHWEST PASS   1900   87 85  140/  3/  5 1018.0
NEW CANAL        1900   83 82   20/  1/  7 1018.0
SHELL BEACH      1900   78 80  170/  7/  8 1017.5

OFFSHORE STATIONS

STATION/POSITION TIME  TEMP    WIND        PRES    WAVE
                       AIR SEA DIR/SP/G            HT/PER
                 (UTC) (F)     (DEG/KT/KT) (MB)    (FT/S)
64 S DAUPHIN ISL 1759   80 85  270/  8/  8 1017.9

$$




USA.gov is the U.S. government's official web portal to all federal, state and local government web resources and services.